Location: Les Jeannots
(43.2262°N, 5.5774°E)
Time: 19:07:39
(UTC+00:00)

CZ-4C R/B - Pass Details

Date: 05 July 2020
Orbit: 632 x 1370 km, 63.4° (Epoch: 11 August)

Event Time Altitude Azimuth Distance (km) Brightness Sun altitude
Rises 23:25:26 0° 326° (NW) 3,755 6.5 -24.0°
Reaches altitude 10° 23:28:06 10° 334° (NNW) 2,911 5.9 -24.0°
Maximum altitude 23:34:41 39° 42° (NE) 1,724 4.1 -24.1°
Drops below altitude 10° 23:42:11 10° 109° (ESE) 3,333 5.1 -24.1°
Enters shadow 23:45:19 - 117° (ESE) 4,322 5.6 -24.1°
